GW4807 Weather Reports


Display with metric or nautical units.
time (UTC)temp
F
wind
direction
speed
MPH
gust
MPH
rain 1hr
in
rain 24hr
in
rain mn
in
humidity
%
barometer
mb
20260506073200 43 100 0.0 0.0 0.00 0.05 0.05 99 1006.8
20260506072656 43 120 0.0 1.0 0.00 0.05 0.05 99 1006.8
20260506072154 43 114 0.0 0.0 0.00 0.05 0.05 99 1006.8
20260506071651 43 155 1.0 1.0 0.00 0.05 0.05 99 1007.1
20260506071149 43 111 0.0 0.0 0.00 0.05 0.05 99 1007.0
20260506070645 43 109 0.0 0.0 0.00 0.05 0.05 99 1006.7
20260506070142 43 118 2.0 3.0 0.00 0.05 0.05 99 1006.9
20260506062120 43 112 0.0 0.0 0.00 0.05 0.05 99 1006.8
20260506061616 43 117 0.0 0.0 0.00 0.05 0.05 99 1007.3
20260506061114 43 164 1.0 1.0 0.05 0.05 0.05 99 1007.2
20260506060612 43 112 0.0 0.0 0.05 0.05 0.05 99 1007.2
20260506060108 43 101 0.0 0.0 0.14 0.04 0.04 99 1006.9
20260506051040 43 96 0.0 0.0 0.00 0.00 0.00 99 1006.1
20260506050538 43 103 0.0 0.0 0.00 0.00 0.00 99 1006.4
20260506045029 42 90 1.0 1.0 0.00 0.10 0.10 99 1005.9
20260506044527 42 75 1.0 1.0 0.00 0.10 0.10 99 1005.6
20260506044023 42 86 0.0 0.0 0.00 0.10 0.10 99 1006.1
20260506043520 42 92 0.0 0.0 0.00 0.10 0.10 99 1006.1
20260506043019 42 104 2.0 3.0 0.00 0.10 0.10 99 1005.9
20260506042518 43 135 1.0 1.0 0.00 0.10 0.10 99 1006.0
20260506042015 42 60 2.0 2.0 0.00 0.10 0.10 99 1006.2
20260506041514 42 89 0.0 0.0 0.00 0.10 0.10 99 1006.6
20260506041010 43 107 0.0 0.0 0.00 0.10 0.10 99 1006.6
20260506040508 43 84 0.0 0.0 0.00 0.10 0.10 99 1006.7
20260506040003 43 115 0.0 0.0 0.00 0.10 0.10 99 1007.2
20260506035501 43 114 0.0 0.0 0.00 0.10 0.10 99 1006.5
20260506034957 43 93 1.0 1.0 0.00 0.10 0.10 99 1006.2
20260506034455 43 110 0.0 0.0 0.00 0.10 0.10 99 1005.8
20260506033951 43 48 1.0 2.0 0.00 0.10 0.10 99 1005.7
20260506033449 43 98 1.0 2.0 0.00 0.10 0.10 99 1005.7
20260506032945 43 122 0.0 1.0 0.05 0.10 0.10 99 1005.6
20260506032443 43 113 3.0 5.0 0.12 0.10 0.10 99 1005.6
20260506031939 43 108 1.0 1.0 0.31 0.09 0.09 99 1005.2
20260506031437 44 100 0.0 1.0 0.24 0.08 0.08 99 1005.5
20260506030934 44 81 1.0 1.0 0.00 0.04 0.04 99 1005.5
20260506030432 44 120 0.0 0.0 0.00 0.04 0.04 99 1005.7
20260506025929 44 116 1.0 1.0 0.00 0.04 0.04 99 1005.5
20260506025426 44 98 1.0 2.0 0.00 0.04 0.04 99 1005.4
20260506024922 44 80 1.0 2.0 0.00 0.04 0.04 99 1005.6
20260506024419 44 95 1.0 2.0 0.00 0.04 0.04 99 1005.6
20260506023915 44 75 2.0 2.0 0.05 0.04 0.04 99 1005.5
20260506023412 44 114 0.0 1.0 0.05 0.04 0.04 99 1005.3
20260506022909 44 109 1.0 1.0 0.00 0.03 0.03 99 1005.0
20260506022407 44 137 2.0 2.0 0.00 0.03 0.03 99 1005.1
20260506021904 44 115 0.0 0.0 0.00 0.03 0.03 99 1004.7
20260506021401 44 116 0.0 0.0 0.00 0.03 0.03 99 1004.8
20260506020858 44 86 0.0 1.0 0.00 0.03 0.03 99 1004.5
20260506020356 44 68 1.0 1.0 0.00 0.03 0.03 99 1004.5
20260506015853 44 112 1.0 2.0 0.00 0.03 0.03 99 1004.5
20260506015351 44 109 2.0 3.0 0.00 0.03 0.03 99 1004.5
20260506014847 44 98 3.0 6.0 0.00 0.03 0.03 99 1004.7
20260506014344 44 114 1.0 2.0 0.00 0.03 0.03 99 1004.4
20260506013840 44 92 1.0 2.0 0.00 0.03 0.03 99 1004.1
20260506013338 44 132 0.0 1.0 0.07 0.03 0.03 99 1004.3
20260506012834 44 94 2.0 3.0 0.12 0.03 0.03 99 1004.0
20260506012331 45 107 1.0 1.0 0.05 0.02 0.02 99 1004.1
20260506011829 45 111 0.0 0.0 0.00 0.01 0.01 99 1004.4
20260506011325 45 114 0.0 0.0 0.00 0.01 0.01 99 1004.4
20260506010823 45 97 0.0 0.0 0.00 0.01 0.01 99 1004.2
20260506010320 45 93 0.0 0.0 0.00 0.01 0.01 99 1004.0
20260506005817 45 97 1.0 1.0 0.00 0.01 0.01 99 1004.2
20260506005314 45 92 2.0 2.0 0.00 0.01 0.01 99 1004.1
20260506004810 45 64 0.0 1.0 0.00 0.01 0.01 99 1003.7
20260506004308 45 101 3.0 5.0 0.00 0.01 0.01 99 1003.8
20260506003803 45 120 1.0 1.0 0.00 0.01 0.01 99 1003.5
20260506003300 45 94 1.0 1.0 0.00 0.01 0.01 99 1003.7
20260506002757 45 114 0.0 1.0 0.00 0.01 0.01 99 1004.0
20260506002253 45 102 0.0 0.0 0.00 0.01 0.01 99 1003.7
20260506001749 45 110 1.0 1.0 0.07 0.01 0.01 99 1003.5
20260506001247 45 93 0.0 1.0 0.07 0.01 0.01 99 1003.5
20260506000743 45 89 1.0 2.0 0.00 0.00 0.00 99 1003.6
20260506000241 45 113 3.0 5.0 0.00 0.00 0.00 99 1003.7
20260505235737 45 114 0.0 0.0 0.00 0.00 0.00 99 1003.7
20260505235235 45 94 3.0 5.0 0.00 0.00 0.00 99 1003.2
20260505234732 46 99 3.0 3.0 0.00 0.00 0.00 99 1002.9
20260505234230 46 92 1.0 1.0 0.00 0.00 0.00 99 1003.2
20260505233726 45 120 2.0 3.0 0.00 0.00 0.00 98 1002.9
20260505233224 46 116 0.0 0.0 0.00 0.00 0.00 98 1003.3
20260505232721 46 19 3.0 5.0 0.00 0.00 0.00 98 1003.1
20260505232218 46 71 0.0 1.0 0.00 0.00 0.00 97 1003.4
20260505231715 46 69 2.0 2.0 0.00 0.00 0.00 97 1003.1
20260505231214 46 123 1.0 1.0 0.00 0.00 0.00 97 1003.3
20260505230712 46 94 0.0 1.0 0.00 0.00 0.00 97 1003.5
20260505230208 46 131 1.0 2.0 0.00 0.00 0.00 96 1003.3
20260505225704 47 99 1.0 1.0 0.00 0.00 0.00 96 1003.3
20260505225201 47 77 3.0 5.0 0.00 0.00 0.00 96 1003.2
20260505224656 47 74 2.0 3.0 0.00 0.00 0.00 96 1002.9
20260505224155 47 109 0.0 1.0 0.00 0.00 0.00 96 1003.2
20260505223652 47 290 1.0 2.0 0.00 0.00 0.00 96 1002.9
20260505223147 47 104 1.0 1.0 0.00 0.00 0.00 96 1002.8
20260505222644 47 95 2.0 3.0 0.00 0.00 0.00 96 1002.9
20260505222140 47 50 1.0 2.0 0.00 0.00 0.00 96 1002.9
20260505221637 48 95 2.0 2.0 0.00 0.00 0.00 97 1002.8
20260505221134 48 67 3.0 3.0 0.00 0.00 0.00 96 1003.0
20260505220632 48 107 3.0 5.0 0.00 0.00 0.00 96 1003.2
20260505220129 48 104 1.0 1.0 0.00 0.00 0.00 95 1003.1
20260505215627 48 89 1.0 2.0 0.00 0.00 0.00 95 1002.8
20260505215125 48 112 1.0 2.0 0.00 0.00 0.00 95 1002.8
20260505214622 48 126 2.0 3.0 0.00 0.00 0.00 95 1002.8
20260505214119 48 110 0.0 1.0 0.00 0.00 0.00 96 1002.7
20260505213617 48 120 2.0 2.0 0.00 0.00 0.00 96 1002.5
20260505213113 48 54 1.0 2.0 0.00 0.00 0.00 96 1002.5
20260505212609 49 99 1.0 1.0 0.00 0.00 0.00 96 1002.9
20260505212107 49 108 0.0 0.0 0.00 0.00 0.00 96 1002.9
20260505211604 49 132 0.0 1.0 0.00 0.00 0.00 97 1003.1
20260505211101 49 119 0.0 0.0 0.00 0.00 0.00 97 1002.7
20260505210557 49 100 2.0 2.0 0.00 0.00 0.00 97 1002.7
20260505210055 49 81 3.0 5.0 0.00 0.00 0.00 97 1002.7
20260505205552 49 85 3.0 3.0 0.00 0.00 0.00 97 1002.7
20260505205050 50 106 0.0 0.0 0.00 0.00 0.00 97 1002.6
20260505204547 50 78 1.0 1.0 0.00 0.00 0.00 97 1002.5
20260505204044 50 43 2.0 3.0 0.00 0.00 0.00 96 1002.2
20260505203540 50 124 0.0 0.0 0.00 0.00 0.00 95 1002.5
20260505203038 51 102 0.0 0.0 0.00 0.00 0.00 96 1002.1
20260505202533 51 92 1.0 1.0 0.00 0.00 0.00 94 1002.4
20260505202029 51 126 1.0 1.0 0.00 0.00 0.00 92 1002.7
20260505201527 51 124 2.0 2.0 0.00 0.00 0.00 91 1003.1
20260505201024 51 120 0.0 1.0 0.00 0.00 0.00 90 1003.3
20260505200522 51 102 0.0 1.0 0.00 0.00 0.00 90 1003.2
20260505200014 51 123 3.0 5.0 0.00 0.00 0.00 90 1002.9
20260505195509 51 101 1.0 2.0 0.00 0.00 0.00 89 1002.7
20260505195007 51 77 2.0 3.0 0.00 0.00 0.00 89 1002.7
20260505194504 51 87 1.0 3.0 0.00 0.00 0.00 90 1002.2
20260505194004 51 75 3.0 5.0 0.00 0.00 0.00 89 1002.1
20260505193502 52 48 3.0 5.0 0.00 0.00 0.00 88 1002.3
20260505192959 52 87 3.0 5.0 0.00 0.00 0.00 88 1002.6
20260505192458 52 60 5.0 8.0 0.00 0.00 0.00 88 1002.6
20260505191955 52 76 2.0 2.0 0.00 0.00 0.00 89 1002.7
20260505191453 52 102 1.0 1.0 0.00 0.00 0.00 91 1002.9
20260505190950 52 0 0.0 1.0 0.00 0.00 0.00 91 1002.6
20260505190445 52 81 2.0 3.0 0.00 0.00 0.00 90 1002.5
20260505185941 53 121 1.0 1.0 0.00 0.00 0.00 90 1002.5
20260505185438 53 88 2.0 2.0 0.00 0.00 0.00 89 1002.4
20260505184934 53 112 3.0 3.0 0.00 0.00 0.00 89 1002.5
20260505184431 53 106 1.0 1.0 0.00 0.00 0.00 90 1002.5
20260505183928 54 88 1.0 1.0 0.00 0.00 0.00 89 1002.5
20260505183425 54 111 1.0 2.0 0.00 0.00 0.00 89 1002.8
20260505182921 54 114 1.0 2.0 0.00 0.00 0.00 88 1002.8
20260505182413 54 152 1.0 1.0 0.00 0.00 0.00 89 1002.8
20260505181909 54 65 1.0 2.0 0.00 0.00 0.00 88 1002.6
20260505181407 54 108 1.0 1.0 0.00 0.00 0.00 88 1002.7
20260505180903 55 0 3.0 5.0 0.00 0.00 0.00 88 1002.7
20260505180359 54 106 1.0 1.0 0.00 0.00 0.00 88 1002.6
20260505175855 54 117 2.0 2.0 0.00 0.00 0.00 89 1002.5
20260505175352 54 101 2.0 3.0 0.00 0.00 0.00 88 1002.6
20260505174848 54 51 1.0 2.0 0.00 0.00 0.00 89 1002.7
20260505174346 54 71 4.0 6.0 0.00 0.00 0.00 88 1002.6
20260505173842 54 67 4.0 5.0 0.00 0.00 0.00 88 1002.4
20260505173339 54 97 1.0 1.0 0.00 0.00 0.00 89 1002.4
20260505172836 54 105 3.0 5.0 0.00 0.00 0.00 88 1002.5
20260505172333 54 84 1.0 2.0 0.00 0.00 0.00 89 1002.2
20260505171833 54 53 3.0 3.0 0.00 0.00 0.00 88 1002.4
20260505171330 54 78 2.0 2.0 0.00 0.00 0.00 89 1002.6
20260505170826 54 115 2.0 3.0 0.00 0.00 0.00 89 1002.6
20260505170323 54 116 2.0 2.0 0.00 0.00 0.00 88 1002.5
20260505165819 55 109 1.0 1.0 0.00 0.00 0.00 88 1002.5
20260505165314 55 91 0.0 1.0 0.00 0.00 0.00 88 1002.7
20260505164810 55 90 2.0 3.0 0.00 0.00 0.00 88 1003.0
20260505164308 56 67 1.0 1.0 0.00 0.00 0.00 87 1003.0
20260505163806 56 107 0.0 1.0 0.00 0.00 0.00 88 1003.0
20260505163304 56 100 2.0 2.0 0.00 0.00 0.00 88 1002.9
20260505162802 56 144 1.0 2.0 0.00 0.00 0.00 88 1002.7
20260505162258 57 110 1.0 1.0 0.00 0.00 0.00 88 1003.0
20260505161755 57 106 1.0 1.0 0.00 0.00 0.00 87 1002.6
20260505161252 57 93 1.0 1.0 0.00 0.00 0.00 87 1002.4
20260505160750 57 117 3.0 3.0 0.00 0.00 0.00 85 1002.1
20260505160247 57 100 1.0 1.0 0.00 0.00 0.00 86 1001.8
20260505153226 58 59 2.0 3.0 0.00 0.00 0.00 84 1001.3
20260505152723 58 85 4.0 5.0 0.00 0.00 0.00 84 1001.7
20260505152220 58 106 2.0 3.0 0.00 0.00 0.00 84 1001.7
20260505151714 58 113 1.0 2.0 0.00 0.00 0.00 85 1002.1
20260505151212 58 104 1.0 1.0 0.00 0.00 0.00 84 1001.9
20260505150708 59 117 1.0 1.0 0.00 0.00 0.00 84 1001.9
20260505150206 58 121 1.0 1.0 0.00 0.00 0.00 85 1002.3
20260505140639 58 88 3.0 3.0 0.00 0.00 0.00 84 1001.9
20260505140136 59 56 2.0 2.0 0.00 0.00 0.00 83 1002.0
20260505124549 56 98 3.0 3.0 0.00 0.00 0.00 91 1001.2
20260505124045 56 88 2.0 3.0 0.00 0.00 0.00 91 1001.4
20260505123542 56 105 0.0 1.0 0.00 0.00 0.00 91 1001.3
20260505123038 56 91 1.0 3.0 0.00 0.00 0.00 91 1001.1
20260505122535 56 115 1.0 1.0 0.00 0.00 0.00 91 1000.8
20260505122032 56 127 1.0 1.0 0.00 0.00 0.00 91 1000.9
20260505121528 56 96 0.0 1.0 0.00 0.00 0.00 90 1000.7
20260505121025 56 135 2.0 3.0 0.00 0.00 0.00 90 1000.5
20260505120521 56 121 2.0 3.0 0.00 0.00 0.00 90 1000.6
20260505120017 57 148 2.0 3.0 0.00 0.00 0.00 89 1000.6
20260505115512 57 54 3.0 6.0 0.00 0.00 0.00 87 1000.6
20260505115010 58 73 3.0 3.0 0.00 0.00 0.00 88 1000.9
20260505114507 58 133 1.0 1.0 0.00 0.00 0.00 88 1000.7
20260505114003 58 211 2.0 2.0 0.00 0.00 0.00 87 1000.3
20260505113500 59 110 0.0 0.0 0.00 0.00 0.00 86 1000.6
20260505112955 60 135 4.0 6.0 0.00 0.00 0.00 85 1000.8
20260505112453 62 110 2.0 2.0 0.00 0.00 0.00 87 1000.4
20260505111950 62 123 1.0 1.0 0.00 0.00 0.00 89 1000.7
20260505111449 62 135 0.0 1.0 0.00 0.00 0.00 88 1000.0
20260505110946 62 120 0.0 0.0 0.00 0.00 0.00 88 999.9
20260505110443 61 137 0.0 0.0 0.00 0.00 0.00 88 1000.5
20260505101915 63 125 0.0 0.0 0.00 0.00 0.00 83 999.5
20260505101415 63 146 1.0 1.0 0.00 0.00 0.00 82 998.8
20260505100911 63 176 3.0 5.0 0.00 0.00 0.00 83 999.1
20260505100408 62 257 4.0 5.0 0.00 0.00 0.00 83 998.9
20260505095903 62 330 1.0 2.0 0.00 0.00 0.00 85 998.7
20260505095400 62 167 1.0 1.0 0.00 0.00 0.00 87 998.2
20260505094856 62 126 2.0 2.0 0.00 0.00 0.00 87 998.1
20260505094354 62 257 2.0 2.0 0.00 0.00 0.00 86 998.0
20260505093849 63 1 5.0 6.0 0.00 0.00 0.00 84 996.9
20260505093347 63 55 2.0 2.0 0.00 0.00 0.00 83 997.6
20260505092844 63 341 2.0 2.0 0.00 0.00 0.00 82 998.4
20260505092342 63 129 1.0 2.0 0.00 0.00 0.00 83 998.6
20260505091839 63 352 2.0 3.0 0.00 0.00 0.00 82 998.9
20260505091337 62 250 4.0 5.0 0.00 0.00 0.00 83 999.0
20260505090835 62 126 1.0 1.0 0.00 0.00 0.00 84 999.2
20260505090333 61 119 1.0 1.0 0.00 0.00 0.00 85 999.2
20260505085829 61 147 0.0 0.0 0.00 0.00 0.00 87 999.4
20260505085328 61 121 1.0 1.0 0.00 0.00 0.00 88 999.5
20260505084825 61 126 1.0 1.0 0.00 0.00 0.00 88 999.7
20260505084323 60 132 0.0 0.0 0.00 0.00 0.00 88 999.6
20260505083820 60 138 1.0 1.0 0.00 0.00 0.00 89 999.4
20260505083318 60 150 0.0 1.0 0.00 0.00 0.00 88 999.4
20260505082814 60 129 0.0 0.0 0.00 0.00 0.00 88 999.5
20260505082311 61 133 0.0 0.0 0.00 0.00 0.00 88 999.5
20260505081807 61 132 0.0 0.0 0.00 0.00 0.00 87 999.4
20260505081304 61 128 0.0 0.0 0.00 0.00 0.00 86 999.2
20260505080800 61 132 0.0 0.0 0.00 0.00 0.00 86 999.2
20260505080256 61 135 0.0 1.0 0.00 0.00 0.00 85 999.3
20260505075752 61 151 1.0 1.0 0.00 0.00 0.00 85 999.3